Location: Hilton Head Island
(32.2163°N, 80.7526°W)
Time: 11:40:46
(UTC-04:00)

S-56A Canister/Altair - Pass Details

Date: 23 February 2026
Orbit: 633 x 2484 km, 38.9° (Epoch: 10 March)

Event Time Altitude Azimuth Distance (km) Brightness Sun altitude
Rises 20:00:53 0° 216° (SW) 3,018 11.0 -22.9°
Reaches altitude 10° 20:03:31 10° 204° (SSW) 2,026 9.9 -23.5°
Enters shadow 20:05:48 23° 179° (S) 1,348 8.7 -23.9°
